Location: Lower Kingswood
(51.2667°N, 0.2167°W)
Time: 20:14:59
(UTC+00:00)

Cosmos 494 Rocket - Pass Details

Date: 26 September 2023
Orbit: 741 x 768 km, 74.1° (Epoch: 08 December)

Event Time Altitude Azimuth Distance (km) Brightness Sun altitude
Rises 03:38:26 0° 336° (NNW) 3,217 7.3 -21.1°
Reaches altitude 10° 03:40:50 10° 339° (NNW) 2,284 6.5 -20.8°
Maximum altitude 03:45:59 68° 63° (ENE) 808 4.3 -20.1°
Drops below altitude 10° 03:51:05 10° 146° (SSE) 2,254 6.5 -19.3°
Sets 03:53:26 0° 149° (SSE) 3,171 7.3 -19.0°
